| time (UTC) | temp F | wind direction | speed knots | gust knots | rain 1hr in | rain 24hr in | rain mn in | humidity % | barometer mb |
| 20260904180100 | 65 | 119 | 0.9 | 3.5 | 0.00 | 1.17 | 0.52 | 93 | 1016.8 |
| 20260904174605 | 65 | 106 | 0.9 | 2.6 | 0.00 | 1.17 | 0.52 | 93 | 1016.8 |
| 20260904173103 | 65 | 143 | 1.7 | 3.5 | 0.00 | 1.17 | 0.52 | 92 | 1016.7 |
| 20260904171615 | 64 | 53 | 0.9 | 3.5 | 0.00 | 1.17 | 0.52 | 94 | 1016.8 |
| 20260904170057 | 64 | 97 | 0.9 | 5.2 | 0.00 | 1.17 | 0.52 | 94 | 1016.7 |
| 20260904164634 | 63 | 0 | 0.0 | 1.7 | 0.00 | 1.17 | 0.52 | 96 | 1016.6 |
| 20260904163101 | 63 | 0 | 0.0 | 2.6 | 0.00 | 1.17 | 0.52 | 97 | 1016.7 |
| 20260904161559 | 63 | 67 | 0.0 | 3.5 | 0.00 | 1.17 | 0.52 | 97 | 1016.6 |
| 20260904160057 | 62 | 34 | 0.0 | 2.6 | 0.00 | 1.17 | 0.52 | 96 | 1016.7 |
| 20260904154605 | 62 | 352 | 0.0 | 4.3 | 0.00 | 1.17 | 0.52 | 96 | 1016.5 |
| 20260904153113 | 62 | 0 | 0.9 | 3.5 | 0.00 | 1.17 | 0.52 | 96 | 1016.2 |
| 20260904151601 | 62 | 61 | 0.9 | 3.5 | 0.00 | 1.17 | 0.52 | 97 | 1016.0 |
| 20260904150057 | 61 | 46 | 0.0 | 3.5 | 0.00 | 1.17 | 0.52 | 97 | 1015.8 |
| 20260904144604 | 61 | 62 | 0.0 | 2.6 | 0.00 | 1.17 | 0.52 | 98 | 1015.8 |
| 20260904143103 | 61 | 59 | 0.0 | 4.3 | 0.00 | 1.17 | 0.52 | 99 | 1015.8 |
| 20260904141603 | 60 | 0 | 0.9 | 4.3 | 0.00 | 1.17 | 0.52 | 99 | 1015.4 |
| 20260904134604 | 60 | 0 | 1.7 | 3.5 | 0.00 | 1.17 | 0.52 | 99 | 1015.3 |
| 20260904133106 | 59 | 0 | 0.9 | 7.0 | 0.00 | 1.17 | 0.52 | 99 | 1015.1 |
| 20260904131612 | 59 | 29 | 0.9 | 3.5 | 0.00 | 1.17 | 0.52 | 99 | 1015.1 |
| 20260904130100 | 59 | 0 | 0.0 | 4.3 | 0.00 | 1.17 | 0.52 | 99 | 1015.1 |
| 20260904124607 | 59 | 124 | 1.7 | 5.2 | 0.00 | 1.17 | 0.52 | 99 | 1014.9 |
| 20260904123105 | 59 | 57 | 0.9 | 6.1 | 0.00 | 1.17 | 0.52 | 99 | 1014.9 |
| 20260904121606 | 58 | 63 | 0.9 | 5.2 | 0.00 | 1.17 | 0.52 | 99 | 1014.6 |
| 20260904120108 | 58 | 0 | 0.9 | 3.5 | 0.00 | 1.17 | 0.52 | 99 | 1014.6 |
| 20260904114608 | 58 | 38 | 0.0 | 2.6 | 0.00 | 1.17 | 0.52 | 98 | 1014.4 |
| 20260904113106 | 58 | 46 | 0.9 | 3.5 | 0.00 | 1.17 | 0.52 | 98 | 1014.1 |
| 20260904111606 | 58 | 44 | 0.9 | 3.5 | 0.00 | 1.17 | 0.52 | 98 | 1013.9 |
| 20260904104559 | 58 | 0 | 0.0 | 5.2 | 0.00 | 1.17 | 0.52 | 98 | 1013.6 |
| 20260904103057 | 58 | 156 | 0.9 | 4.3 | 0.00 | 1.17 | 0.52 | 98 | 1013.4 |
| 20260904101611 | 57 | 126 | 0.9 | 5.2 | 0.00 | 1.17 | 0.52 | 98 | 1013.3 |
| 20260904100110 | 57 | 60 | 0.9 | 3.5 | 0.00 | 1.17 | 0.52 | 98 | 1013.4 |
| 20260904094607 | 57 | 0 | 0.0 | 2.6 | 0.00 | 1.17 | 0.52 | 98 | 1013.6 |
| 20260904093118 | 57 | 0 | 0.0 | 0.9 | 0.00 | 1.17 | 0.52 | 97 | 1013.6 |
| 20260904091615 | 57 | 0 | 0.0 | 1.7 | 0.00 | 1.17 | 0.52 | 97 | 1013.4 |
| 20260904090106 | 57 | 0 | 0.0 | 0.0 | 0.00 | 1.17 | 0.52 | 97 | 1013.2 |
| 20260904084606 | 57 | 0 | 0.0 | 0.0 | 0.00 | 1.17 | 0.52 | 97 | 1013.2 |
| 20260904083105 | 58 | 83 | 0.0 | 0.9 | 0.00 | 1.17 | 0.52 | 97 | 1013.0 |
| 20260904081555 | 58 | 0 | 0.0 | 2.6 | 0.00 | 1.17 | 0.52 | 97 | 1012.8 |
| 20260904080053 | 58 | 153 | 0.0 | 8.7 | 0.00 | 1.17 | 0.52 | 97 | 1012.4 |
| 20260904074604 | 58 | 101 | 2.6 | 7.8 | 0.04 | 1.17 | 0.52 | 97 | 1012.4 |
| 20260904073124 | 58 | 110 | 5.2 | 13.9 | 0.17 | 1.17 | 0.52 | 97 | 1012.6 |
| 20260904071606 | 58 | 101 | 1.7 | 5.2 | 0.42 | 1.17 | 0.52 | 97 | 1013.4 |
| 20260904070106 | 58 | 166 | 0.9 | 8.7 | 0.50 | 1.17 | 0.52 | 97 | 1014.2 |
| 20260904064604 | 58 | 130 | 1.7 | 5.2 | 0.47 | 1.14 | 0.49 | 97 | 1014.8 |
| 20260904063110 | 59 | 52 | 1.7 | 7.0 | 0.34 | 1.00 | 0.35 | 97 | 1015.1 |
| 20260904061554 | 59 | 11 | 2.6 | 9.6 | 0.08 | 0.74 | 0.09 | 96 | 1014.8 |
| 20260904060125 | 59 | 87 | 2.6 | 6.1 | 0.03 | 0.68 | 0.03 | 97 | 1014.1 |
| 20260904054618 | 60 | 0 | 0.0 | 5.2 | 0.02 | 0.67 | 0.02 | 97 | 1014.2 |
| 20260904053101 | 60 | 95 | 0.9 | 2.6 | 0.01 | 0.66 | 0.01 | 98 | 1014.0 |
| 20260904051555 | 60 | 96 | 0.0 | 3.5 | 0.01 | 0.66 | 0.01 | 97 | 1014.0 |
| 20260904050050 | 60 | 99 | 0.0 | 2.6 | 0.00 | 0.65 | 0.00 | 97 | 1014.4 |
| 20260904044556 | 60 | 0 | 0.0 | 3.5 | 0.00 | 0.65 | 0.65 | 97 | 1014.3 |
| 20260904043057 | 60 | 102 | 0.0 | 2.6 | 0.00 | 0.65 | 0.65 | 97 | 1014.4 |
| 20260904041605 | 60 | 0 | 0.0 | 2.6 | 0.00 | 0.65 | 0.65 | 97 | 1013.9 |
| 20260904040057 | 60 | 104 | 0.9 | 5.2 | 0.00 | 0.65 | 0.65 | 97 | 1013.8 |
| 20260904034551 | 60 | 111 | 0.0 | 3.5 | 0.00 | 0.65 | 0.65 | 97 | 1013.9 |
| 20260904033102 | 60 | 128 | 2.6 | 7.8 | 0.00 | 0.65 | 0.65 | 97 | 1013.3 |
| 20260904031607 | 60 | 0 | 0.0 | 2.6 | 0.00 | 0.65 | 0.65 | 97 | 1014.4 |
| 20260904030104 | 60 | 119 | 0.9 | 3.5 | 0.00 | 0.65 | 0.65 | 96 | 1014.9 |
| 20260904024604 | 60 | 0 | 0.0 | 6.1 | 0.04 | 0.65 | 0.65 | 96 | 1014.5 |
| 20260904023102 | 60 | 97 | 1.7 | 7.0 | 0.12 | 0.65 | 0.65 | 96 | 1014.8 |
| 20260904021608 | 60 | 0 | 0.0 | 5.2 | 0.54 | 0.65 | 0.65 | 95 | 1014.8 |
| 20260904020106 | 61 | 41 | 0.9 | 4.3 | 0.65 | 0.65 | 0.65 | 95 | 1015.0 |
| 20260904014620 | 61 | 127 | 0.0 | 1.7 | 0.61 | 0.61 | 0.61 | 93 | 1016.0 |
| 20260904013112 | 62 | 165 | 0.9 | 3.5 | 0.52 | 0.52 | 0.52 | 90 | 1015.8 |
| 20260904011606 | 66 | 237 | 1.7 | 11.3 | 0.10 | 0.10 | 0.10 | 82 | 1016.6 |
| 20260904010115 | 67 | 153 | 0.9 | 6.1 | 0.00 | 0.00 | 0.00 | 70 | 1014.6 |
| 20260904004558 | 68 | 197 | 1.7 | 7.8 | 0.00 | 0.00 | 0.00 | 70 | 1014.0 |
| 20260904003133 | 68 | 114 | 1.7 | 7.0 | 0.00 | 0.00 | 0.00 | 69 | 1013.7 |
| 20260904001602 | 69 | 115 | 1.7 | 7.0 | 0.00 | 0.00 | 0.00 | 69 | 1013.8 |
| 20260904000103 | 69 | 98 | 2.6 | 7.8 | 0.00 | 0.00 | 0.00 | 68 | 1013.5 |
| 20260903234557 | 70 | 0 | 1.7 | 8.7 | 0.00 | 0.00 | 0.00 | 68 | 1013.5 |
| 20260903233100 | 71 | 117 | 5.2 | 13.0 | 0.00 | 0.00 | 0.00 | 66 | 1013.2 |
| 20260903231611 | 72 | 123 | 1.7 | 9.6 | 0.00 | 0.00 | 0.00 | 66 | 1012.9 |
| 20260903230106 | 72 | 64 | 0.9 | 8.7 | 0.00 | 0.00 | 0.00 | 65 | 1012.8 |
| 20260903224600 | 73 | 72 | 2.6 | 8.7 | 0.00 | 0.00 | 0.00 | 64 | 1012.9 |
| 20260903223107 | 74 | 117 | 2.6 | 7.8 | 0.00 | 0.00 | 0.00 | 64 | 1013.3 |
| 20260903221607 | 74 | 78 | 2.6 | 8.7 | 0.00 | 0.00 | 0.00 | 63 | 1013.0 |
| 20260903220104 | 73 | 81 | 2.6 | 7.8 | 0.00 | 0.00 | 0.00 | 64 | 1012.9 |
| 20260903214603 | 74 | 141 | 3.5 | 8.7 | 0.00 | 0.00 | 0.00 | 61 | 1013.3 |
| 20260903213058 | 75 | 130 | 2.6 | 8.7 | 0.00 | 0.00 | 0.00 | 61 | 1013.3 |
| 20260903211606 | 76 | 69 | 3.5 | 8.7 | 0.00 | 0.00 | 0.00 | 60 | 1013.3 |
| 20260903210101 | 76 | 60 | 2.6 | 8.7 | 0.00 | 0.00 | 0.00 | 61 | 1012.9 |
| 20260903204559 | 76 | 130 | 3.5 | 10.4 | 0.00 | 0.00 | 0.00 | 61 | 1013.0 |
| 20260903203056 | 77 | 115 | 4.3 | 11.3 | 0.00 | 0.00 | 0.00 | 58 | 1013.1 |
| 20260903201555 | 78 | 202 | 1.7 | 9.6 | 0.00 | 0.00 | 0.00 | 58 | 1013.3 |
| 20260903200105 | 77 | 117 | 3.5 | 13.9 | 0.00 | 0.00 | 0.00 | 58 | 1013.5 |
| 20260903194559 | 78 | 0 | 2.6 | 10.4 | 0.00 | 0.00 | 0.00 | 62 | 1013.4 |
| 20260903193109 | 78 | 61 | 5.2 | 12.2 | 0.00 | 0.00 | 0.00 | 58 | 1013.7 |
| 20260903191605 | 78 | 169 | 4.3 | 13.9 | 0.00 | 0.00 | 0.00 | 58 | 1013.7 |
| 20260903190106 | 78 | 126 | 4.3 | 10.4 | 0.00 | 0.00 | 0.00 | 58 | 1013.6 |
| 20260903184600 | 77 | 78 | 6.1 | 11.3 | 0.00 | 0.00 | 0.00 | 58 | 1013.6 |
| 20260903183107 | 78 | 200 | 4.3 | 9.6 | 0.00 | 0.00 | 0.00 | 59 | 1013.8 |
| 20260903181605 | 78 | 101 | 5.2 | 9.6 | 0.00 | 0.00 | 0.00 | 59 | 1013.8 |